Waarnemingen

Advertentie
Mijn weer
Sevilla/San Pablo, Spanje (8391): temperatuur & dauwpunt: 15.02.2018 14:00:00 - 21.02.2018 14:00:00 (CET)Sevilla/San Pablo, Spanje (8391): windsnelheid: 15.02.2018 14:00:00 - 21.02.2018 14:00:00 (CET)Sevilla/San Pablo, Spanje (8391): windrichting: 15.02.2018 14:00:00 - 21.02.2018 14:00:00 (CET)Sevilla/San Pablo, Spanje (8391): luchtdruk: 15.02.2018 14:00:00 - 21.02.2018 14:00:00 (CET)Sevilla/San Pablo, Spanje (8391): zicht: 15.02.2018 14:00:00 - 21.02.2018 14:00:00 (CET)
Datum & Tijd tt [°C] td [°C] ff [km/u] ff [kn] dd ppp [hPa] vv [km]
21.02.2018 14:00:00 - - - - - - -
21.02.2018 13:00:00 16,6 2,6 11 6 ONO 1009,9 30
21.02.2018 12:00:00 15,6 2,3 18 10 ONO 1010,9 -
21.02.2018 11:00:00 14,0 3,2 22 12 ONO 1011,2 -
21.02.2018 10:00:00 12,5 3,8 16 9 ONO 1011,2 30
21.02.2018 09:00:00 10,2 4,1 16 9 NO 1011,2 -
21.02.2018 08:00:00 7,5 3,7 8 4 NNO 1010,7 -
21.02.2018 07:00:00 8,0 3,8 9 5 NO 1010,6 30
21.02.2018 06:00:00 10,5 4,2 13 7 NO 1010,8 -
21.02.2018 05:00:00 8,2 4,2 4 2 NO 1011,3 -
21.02.2018 04:00:00 8,9 4,3 8 4 NO 1011,8 30
21.02.2018 03:00:00 9,8 4,8 9 5 NO 1012,5 -
21.02.2018 02:00:00 9,5 4,9 0 0 N 1012,9 -
21.02.2018 01:00:00 9,8 5,2 2 1 NNO 1013,5 30
21.02.2018 00:00:00 9,4 5,8 0 0 N 1013,8 -
20.02.2018 23:00:00 11,0 6,3 4 2 NO 1013,9 -
20.02.2018 22:00:00 12,0 6,5 2 1 O 1014,2 30
20.02.2018 21:00:00 14,1 6,9 8 4 O 1014,0 -
20.02.2018 20:00:00 16,4 7,0 0 0 N 1013,9 -
20.02.2018 19:00:00 20,6 4,6 2 1 O 1013,8 30
20.02.2018 18:00:00 21,5 4,2 5 3 ONO 1013,9 -
20.02.2018 17:00:00 21,6 4,1 8 4 O 1014,2 -
20.02.2018 16:00:00 21,2 3,7 9 5 ONO 1014,9 30
20.02.2018 15:00:00 20,6 4,0 16 9 ONO 1015,7 -
20.02.2018 14:00:00 20,0 3,9 13 7 O 1016,6 -
20.02.2018 13:00:00 18,9 5,4 15 8 O 1017,6 30
20.02.2018 12:00:00 16,7 5,2 21 11 ONO 1018,2 -
20.02.2018 11:00:00 14,6 5,2 11 6 ONO 1018,7 -
20.02.2018 10:00:00 10,4 5,8 4 2 N 1018,6 25
20.02.2018 09:00:00 6,9 4,2 2 1 N 1018,5 -
20.02.2018 08:00:00 5,4 3,3 2 1 N 1017,8 -
20.02.2018 07:00:00 5,7 3,4 2 1 NW 1017,6 25
20.02.2018 06:00:00 6,2 3,5 4 2 NNO 1017,3 -
20.02.2018 05:00:00 7,1 3,9 4 2 NNO 1017,4 -
20.02.2018 04:00:00 6,6 3,6 4 2 N 1017,5 25
20.02.2018 03:00:00 6,6 3,4 5 3 ZZO 1017,4 -
20.02.2018 02:00:00 7,0 3,6 4 2 ZO 1017,5 -
20.02.2018 01:00:00 8,2 4,4 0 0 N 1017,6 30
20.02.2018 00:00:00 8,7 4,5 0 0 N 1017,7 -
19.02.2018 23:00:00 10,1 4,2 5 3 NNW 1017,7 -
19.02.2018 22:00:00 11,5 5,1 0 0 N 1017,5 30
19.02.2018 21:00:00 12,7 5,1 2 1 NO 1017,1 -
19.02.2018 20:00:00 15,3 4,6 0 0 N 1017,0 -
19.02.2018 19:00:00 17,9 3,6 4 2 NO 1016,6 30
19.02.2018 18:00:00 19,0 2,0 8 4 ONO 1016,3 -
19.02.2018 17:00:00 19,4 1,6 8 4 OZO 1016,4 -
19.02.2018 16:00:00 19,4 1,4 11 6 ONO 1016,7 30
19.02.2018 15:00:00 18,6 0,3 15 8 ONO 1017,2 -
19.02.2018 14:00:00 17,6 -0,1 13 7 O 1018,1 -
19.02.2018 13:00:00 16,1 1,1 15 8 ONO 1018,9 30
19.02.2018 12:00:00 12,9 2,3 9 5 ONO 1019,4 -
19.02.2018 11:00:00 11,0 2,2 15 8 ONO 1019,4 -
19.02.2018 10:00:00 9,5 2,8 8 4 ONO 1019,2 25
19.02.2018 09:00:00 7,4 3,2 4 2 ONO 1018,8 -
19.02.2018 08:00:00 6,9 3,7 2 1 O 1018,4 -
19.02.2018 07:00:00 7,5 4,4 4 2 O 1018,2 25
19.02.2018 06:00:00 7,7 4,5 5 3 ONO 1018,2 -
19.02.2018 05:00:00 8,0 4,9 4 2 NO 1018,0 -
19.02.2018 04:00:00 8,5 4,8 0 0 N 1018,0 20
19.02.2018 03:00:00 7,6 5,9 4 2 O 1018,3 -
19.02.2018 02:00:00 8,0 6,1 4 2 ONO 1018,6 -
19.02.2018 01:00:00 9,6 8,0 0 0 N 1018,9 15
19.02.2018 00:00:00 10,4 8,0 5 3 OZO 1019,1 -
18.02.2018 23:00:00 12,0 9,2 0 0 N 1019,1 -
18.02.2018 22:00:00 13,9 9,9 4 2 WZW 1018,9 30
18.02.2018 21:00:00 15,3 10,9 11 6 ZZW 1018,8 -
18.02.2018 20:00:00 16,0 11,2 13 7 ZW 1018,7 -
18.02.2018 19:00:00 18,4 8,1 9 5 ONO 1018,3 30
18.02.2018 18:00:00 20,2 7,9 8 4 OZO 1018,1 -
18.02.2018 17:00:00 20,3 7,7 9 5 O 1018,2 -
18.02.2018 16:00:00 19,4 8,9 9 5 NO 1018,6 25
18.02.2018 15:00:00 19,1 9,4 11 6 NO 1019,2 -
18.02.2018 14:00:00 18,2 10,1 13 7 ONO 1020,1 -
18.02.2018 13:00:00 16,5 9,8 16 9 NO 1020,9 10
18.02.2018 12:00:00 15,0 10,3 13 7 NO 1021,3 -
18.02.2018 11:00:00 12,3 10,0 8 4 ONO 1021,8 -
18.02.2018 10:00:00 8,2 8,1 8 4 NNO 1022,1 5
18.02.2018 09:00:00 6,2 6,1 5 3 N 1021,7 -
18.02.2018 08:00:00 7,1 7,0 5 3 N 1021,2 -
18.02.2018 07:00:00 8,7 8,6 5 3 NO 1021,3 0,1
18.02.2018 06:00:00 8,3 8,0 8 4 ONO 1021,5 -
18.02.2018 05:00:00 8,0 7,4 5 3 NO 1021,5 -
18.02.2018 04:00:00 7,4 6,7 4 2 O 1021,7 5
18.02.2018 03:00:00 7,8 7,2 9 5 ZZO 1022,0 -
18.02.2018 02:00:00 8,3 7,1 5 3 ZO 1022,3 -
18.02.2018 01:00:00 9,1 7,7 5 3 ZZO 1022,6 9
18.02.2018 00:00:00 10,7 8,8 5 3 ZW 1022,7 -
17.02.2018 23:00:00 11,8 9,2 9 5 ZZW 1022,7 -
17.02.2018 22:00:00 12,5 9,1 9 5 ZW 1022,8 30
17.02.2018 21:00:00 13,4 9,1 13 7 ZW 1022,5 -
17.02.2018 20:00:00 14,5 9,3 13 7 ZZW 1022,4 -
17.02.2018 19:00:00 15,7 10,0 9 5 ZW 1022,1 30
17.02.2018 18:00:00 16,6 9,8 15 8 ZW 1021,8 -
17.02.2018 17:00:00 17,3 9,8 13 7 ZZW 1021,9 -
17.02.2018 16:00:00 16,9 10,0 11 6 ZZW 1022,2 30
17.02.2018 15:00:00 15,9 10,2 8 4 ZW 1022,8 -
17.02.2018 14:00:00 14,7 10,2 9 5 ZW 1023,6 -
17.02.2018 13:00:00 13,7 10,2 9 5 ZZW 1024,6 0,8
17.02.2018 12:00:00 11,8 10,0 9 5 WZW 1025,1 -
17.02.2018 11:00:00 10,8 10,3 9 5 ZW 1025,0 -
17.02.2018 10:00:00 9,9 9,7 0 0 N 1024,9 0,4
17.02.2018 09:00:00 9,2 9,1 2 1 ZZW 1024,6 -
17.02.2018 08:00:00 8,9 8,7 4 2 Z 1024,2 -
17.02.2018 07:00:00 9,0 8,7 5 3 Z 1023,7 0,2
17.02.2018 06:00:00 9,4 9,1 5 3 ZZO 1023,3 -
17.02.2018 05:00:00 10,2 9,9 9 5 ZW 1023,1 -
17.02.2018 04:00:00 11,0 10,8 5 3 WZW 1023,0 0,2
17.02.2018 03:00:00 10,1 9,8 9 5 ZZW 1023,0 -
17.02.2018 02:00:00 10,5 9,7 16 9 Z 1023,3 -
17.02.2018 01:00:00 11,1 9,2 15 8 Z 1023,5 20
17.02.2018 00:00:00 12,8 8,9 9 5 Z 1023,4 -
16.02.2018 23:00:00 14,7 8,9 15 8 WZW 1023,2 -
16.02.2018 22:00:00 14,2 8,8 13 7 W 1022,9 30
16.02.2018 21:00:00 16,3 9,9 9 5 WZW 1022,4 -
16.02.2018 20:00:00 17,8 10,7 16 9 ZW 1022,1 -
16.02.2018 19:00:00 19,8 8,9 13 7 ZZW 1021,6 30
16.02.2018 18:00:00 21,9 7,9 9 5 ZW 1021,2 -
16.02.2018 17:00:00 22,1 6,9 11 6 W 1021,2 -
16.02.2018 16:00:00 22,1 8,0 4 2 WZW 1021,3 30
16.02.2018 15:00:00 21,5 8,1 4 2 W 1022,0 -
16.02.2018 14:00:00 19,9 8,8 5 3 N 1023,0 -
16.02.2018 13:00:00 18,4 9,5 8 4 ONO 1023,9 30
16.02.2018 12:00:00 16,8 9,8 13 7 NO 1024,7 -
16.02.2018 11:00:00 14,6 9,3 11 6 NNO 1025,0 -
16.02.2018 10:00:00 11,9 8,7 9 5 NNO 1024,8 30
16.02.2018 09:00:00 9,3 7,7 8 4 NNO 1024,7 -
16.02.2018 08:00:00 8,2 7,0 5 3 NNO 1024,0 -
16.02.2018 07:00:00 8,1 6,9 4 2 ONO 1023,9 30
16.02.2018 06:00:00 7,6 6,2 0 0 N 1023,9 -
16.02.2018 05:00:00 7,9 6,2 4 2 NNW 1024,0 -
16.02.2018 04:00:00 8,1 6,1 0 0 N 1024,2 30
16.02.2018 03:00:00 8,7 6,7 0 0 N 1024,5 -
16.02.2018 02:00:00 9,3 6,9 4 2 NNW 1024,5 -
16.02.2018 01:00:00 9,9 7,1 0 0 N 1024,8 30
16.02.2018 00:00:00 10,5 7,5 5 3 O 1025,1 -
15.02.2018 23:00:00 11,4 7,9 4 2 ONO 1025,1 -
15.02.2018 22:00:00 12,8 7,9 5 3 NNW 1024,9 30
15.02.2018 21:00:00 14,0 8,8 4 2 O 1024,4 -
15.02.2018 20:00:00 15,7 8,9 11 6 O 1024,0 -
15.02.2018 19:00:00 19,8 8,8 4 2 O 1024,1 30
15.02.2018 18:00:00 20,2 8,3 4 2 N 1024,2 -
15.02.2018 17:00:00 20,1 8,4 8 4 NO 1024,3 -
15.02.2018 16:00:00 20,0 8,0 9 5 NO 1024,4 30
15.02.2018 15:00:00 19,6 7,9 15 8 ONO 1024,8 -
15.02.2018 14:00:00 18,8 7,6 18 10 O 1025,8 -

tt = temperatuur
td = dauwpunt
ff = windsnelheid
dd = windrichting
ppp = luchtdruk
vv = zicht

Weerstations in de omgeving